Orbital Elements at Epoch 2459200.5 (2020-Dec-17.0) TDB
Reference: JPL 23 (heliocentric ecliptic J2000)
Element | Value | Uncertainty (1-sigma) | Units |
e | .2073326426160801 | 4.3027e-08 | |
a | 2.167387406941194 | 7.8306e-09 | au |
q | 1.718017248287263 | 9.5325e-08 | au |
i | 5.206552474183549 | 4e-06 | deg |
node | 240.4287851587058 | 4.5154e-05 | deg |
peri | 62.94456182302488 | 4.6294e-05 | deg |
M | 248.9454167520129 | 8.2013e-06 | deg |
tp | 2459560.031735638634 (2021-Dec-11.53173564) | 2.6915e-05 | TDB |
period | 1165.475760157375 3.19 | 6.3162e-06 1.729e-08 | d yr |
n | .3088867330465878 | 1.674e-09 | deg/d |
Q | 2.616757565595125 | 9.4541e-09 | au |
|
| | Orbit Determination Parameters
Additional Information
|